Regional Weather Roundup
Issued by NWS

Home | Current Version | Previous Version | Graphics & Text | Print | Product List | Glossary On
Versions: 1 2 3 4 5 6 7 8 9 10 11 12 13 14 15 16 17 18 19 20 21 22 23 24 25 26 27 28 29 30 31 32 33 34 35 36 37 38 39 40 41 42 43 44 45 46 47 48 49 50
000
ASUS45 KSLC 240010
RWRUT

UTAH REGIONAL WEATHER ROUNDUP
NATIONAL WEATHER SERVICE SALT LAKE CITY UT
600 PM MDT WED JUL 23 2014

UTZ001>011-023>025-240100-

NORTHERN UTAH

CITY           SKY/WX    TMP DP  RH WIND       PRES   REMARKS
HILL AFB       SUNNY     99  38  12 VRB2      30.03F HX  94
LOGAN          NOT AVBL
OGDEN          SUNNY     99  36  11 NW6       29.99F HX  93
PROVO AIRPORT  PTSUNNY   93  48  21 E14       30.05S HX  90
SALT LAKE CITY PTSUNNY  102  31   8 SW14G22   29.95F HX  95
VERNAL         MOSUNNY   95  37  13 SW10      30.12F HX  90
WENDOVER       MOSUNNY  104  37  10 S18G26    29.92F HX  98
HEBER CITY     MOSUNNY   90  37  15 SE23G30   30.14R
WEST JORDAN    SUNNY    102  54  19 S12G29    30.00F HX 100

$$

UTZ012>022-026-027-240100-

SOUTHERN UTAH

CITY           SKY/WX    TMP DP  RH WIND       PRES   REMARKS
BRYCE CANYON   MOSUNNY   87  37  17 S9        30.35F
CEDAR CITY     MOSUNNY   93  30  10 SW16G22   30.15F
MILFORD        SUNNY    100  37  11 SW24      30.07F HX  95
MOAB/CYNLANDS  SUNNY     99  38  12 SE7       30.04F HX  94
PRICE          CLOUDY    91  30  11 W9        30.21F
ST GEORGE      PTCLDY   106  39  10 W10       29.92F HX 100
KANAB            N/A     97  39  13 W9        30.12F HX  92

$$

REGIONAL REPORTS     COLORADO/ARIZONA

CITY           SKY/WX    TMP DP  RH WIND       PRES   REMARKS
CRAIG, CO      PTSUNNY   88  37  16 SW10      30.22F
GRAND JUNCTION PTSUNNY   93  40  15 S17       30.10S
RIFLE          MOSUNNY   97  30   9 MISG      30.14F HX  91
MONTROSE       PTSUNNY   87  47  24 SW5       30.23S
CORTEZ         SUNNY     94  33  11 VRB3      30.21F
PAGE, AZ       MOSUNNY  106  36   9 MISG      30.03F HX  99
GRAND CANYON   CLOUDY    87  37  17 W3        30.29F
KINGMAN        SUNNY    101  36  10 SW14      30.01F HX  95
FLAGSTAFF      PTSUNNY   82  45  27 SW13      30.33F

$$

REGIONAL REPORTS    NEVADA/IDAHO/WYOMING

CITY           SKY/WX    TMP DP  RH WIND       PRES   REMARKS
LAS VEGAS, NV  MOSUNNY  109  22   4 SW15G24   29.81F HX 100
ELY            SUNNY     94  21   7 SW20G31   30.16F
ELKO           SUNNY     95  26   8 W25G32    30.04F
POCATELLO, ID  MOSUNNY   96  38  13 NW8       30.00F HX  91
BURLEY         PTSUNNY   89  45  21 NE3       29.95F
EVANSTON, WY   SUNNY     90  37  15 SW20G30   30.26F
ROCK SPRINGS   PTSUNNY   90  31  12 NW13G22   30.24F

$$



USA.gov is the U.S. government's official web portal to all federal, state and local government web resources and services.